Bowling Green, KY

10:34 AM CDT on March 28, 2017 (GMT -0500)
Bowling Green-Warren County Regional

Weather History for KBWG - June, 2013

Change the Weather History Date:

Saturday, June 29, 2013

  Actual Average Record
Temperature  
Mean Temperature 77 °F 78 °F  
Max Temperature 88 °F 89 °F 110 °F (2012)
Min Temperature 66 °F 67 °F 53 °F (1926)
Degree Days  
Heating Degree Days 0 0  
Month to date heating degree days 0 3  
Since 1 June heating degree days 0 3  
Since 1 July heating degree days 3875 4046  
Cooling Degree Days 12 13  
Month to date cooling degree days 326 292  
Year to date cooling degree days 539 445  
Since 1 June cooling degree days 326 292  
Growing Degree Days 26 (Base 50)    
Moisture  
Dew Point 62 °F    
Average Humidity 62    
Maximum Humidity 84    
Minimum Humidity 40    
Precipitation  
Precipitation T in 0.13 in 2.21 in (1928)
Month to date precipitation 2.36 4.07  
Year to date precipitation 26.89 26.00  
Snow  
Snow 0.00 in 0.00 in 0.00 in ()
Month to date snowfall 0.0 0.0  
Since 1 June snowfall 0.0 0.0  
Since 1 July snowfall 3.8 9.1  
Snow Depth 0.00 in    
Sea Level Pressure  
Sea Level Pressure 29.66 in    
Wind  
Wind Speed 6 mph (West)    
Max Wind Speed 17 mph    
Max Gust Speed 24 mph    
Visibility 10 miles    
Events      
T = Trace of Precipitation, MM = Missing Value Source: NWS Daily Summary

Daily Weather History Graph

Daily Weather History Graph

Search for Another Location

Airport or City:

Trip Planner

Search our weather history database for the weather conditions in past years. The results will help you decide how hot, cold, wet, or windy it might be!

Date:

Astronomy

Jun. 29, 2013 Rise Set
Actual Time 5:29 AM CDT 8:09 PM CDT
Civil Twilight 4:58 AM CDT 8:39 PM CDT
Nautical Twilight 4:20 AM CDT 9:18 PM CDT
Astronomical Twilight 3:37 AM CDT 10:01 PM CDT
Moon No Moon Rise 12:29 PM CDT (6/29)
Length of Visible Light 15h 41m
Length of Day
14h 40m
Waning Gibbous, 55% of the Moon is Illuminated
Jun 29
Waning Gibbous
Jun 29
Last Quarter
Jul 8
New
Jul 15
First Quarter
Jul 22
Full

Hourly Weather History & Observations

Time (CDT) Temp. Heat Index Dew Point Humidity Pressure Visibility Wind Dir Wind Speed Gust Speed Precip Events Conditions
12:53 AM 70.0 °F - 64.0 °F 81% 29.68 in 10.0 mi WSW 4.6 mph - N/A   Clear
1:53 AM 69.1 °F - 64.0 °F 84% 29.66 in 10.0 mi Calm Calm - N/A   Clear
2:53 AM 69.1 °F - 63.0 °F 81% 29.64 in 10.0 mi WSW 3.5 mph - N/A   Clear
3:53 AM 69.1 °F - 62.1 °F 78% 29.65 in 10.0 mi SW 3.5 mph - N/A   Clear
4:53 AM 66.9 °F - 61.0 °F 81% 29.66 in 10.0 mi SSW 5.8 mph - N/A   Clear
5:53 AM 66.9 °F - 60.1 °F 79% 29.67 in 10.0 mi SSW 3.5 mph - N/A   Clear
6:53 AM 70.0 °F - 60.1 °F 71% 29.67 in 10.0 mi SW 6.9 mph - N/A   Clear
7:53 AM 73.9 °F - 61.0 °F 64% 29.67 in 10.0 mi West 4.6 mph - N/A   Clear
8:53 AM 78.1 °F - 60.1 °F 54% 29.67 in 10.0 mi WNW 4.6 mph - N/A   Partly Cloudy
9:53 AM 80.1 °F 81.5 °F 63.0 °F 56% 29.67 in 10.0 mi Variable 4.6 mph - N/A   Clear
10:53 AM 82.9 °F 83.3 °F 61.0 °F 47% 29.67 in 10.0 mi WNW 9.2 mph - N/A   Mostly Cloudy
11:53 AM 84.0 °F 84.5 °F 62.1 °F 47% 29.66 in 10.0 mi West 6.9 mph - N/A   Partly Cloudy
12:53 PM 84.0 °F 84.4 °F 61.0 °F 46% 29.65 in 10.0 mi WNW 4.6 mph - N/A   Mostly Cloudy
1:53 PM 87.1 °F 86.7 °F 60.1 °F 40% 29.64 in 10.0 mi West 13.8 mph 20.7 mph N/A   Partly Cloudy
2:53 PM 86.0 °F 85.7 °F 60.1 °F 41% 29.64 in 10.0 mi WNW 15.0 mph - N/A   Partly Cloudy
3:53 PM 87.1 °F 87.0 °F 61.0 °F 41% 29.63 in 10.0 mi West 10.4 mph 18.4 mph N/A   Partly Cloudy
4:53 PM 87.1 °F 86.7 °F 60.1 °F 40% 29.62 in 10.0 mi West 13.8 mph 19.6 mph N/A   Partly Cloudy
5:53 PM 84.9 °F 84.8 °F 60.1 °F 43% 29.61 in 10.0 mi West 13.8 mph - N/A   Clear
6:53 PM 82.9 °F 83.3 °F 61.0 °F 47% 29.62 in 10.0 mi WNW 6.9 mph - N/A   Clear
7:53 PM 80.1 °F 81.2 °F 62.1 °F 54% 29.64 in 10.0 mi WNW 3.5 mph - N/A   Clear
8:53 PM 78.1 °F - 63.0 °F 60% 29.65 in 10.0 mi Calm Calm - N/A   Scattered Clouds
9:53 PM 72.0 °F - 62.1 °F 71% 29.68 in 10.0 mi Calm Calm - 0.00 in   Mostly Cloudy
10:53 PM 71.1 °F - 63.0 °F 75% 29.69 in 10.0 mi SW 3.5 mph - N/A   Mostly Cloudy
11:53 PM 69.1 °F - 62.1 °F 78% 29.70 in 10.0 mi SW 5.8 mph - N/A   Clear